User: anonymous   Login
Location: Unspecified
(0.0000°N, 0.0000°E)
Time: 16:39:22
(UTC+00:00)
Language:

USA 162 - Orbit

View from above orbital plane
View from above orbital plane
View from above satellite
View from above satellite

Ground track
Ground track

The orbit data is extracted from the following two-line orbital elements,

1 26948U 01046A   17049.09000669 0.00000000  00000-0  00000-0 0    04
2 26948   9.0124  55.9944 0020001   8.7010 351.2828  1.00310000    06
Epoch (UTC): 18 February 2017 02:09:36
Eccentricity: 0.0020001
inclination: 9.0124°
perigee height: 35691 km
apogee height: 35860 km
right ascension of ascending node: 55.9944°
argument of perigee: 8.7010°
revolutions per day: 1.00310000
mean anomaly at epoch: 351.2828°
orbit number at epoch: 0

The dashed part of the orbit path shows where the satellite is in the earth's shadow,  

DLR